Vorticity
nan nan nan nan nan nan nan nan nan nan nan nan nan nan nan nan nan nan nan nan nan nan nan nan nan nan nan nan nan nan nan nan nan nan nan nan nan nan nan nan nan nan nan nan nan nan nan nan nan nan nan nan nan nan nan nan nan nan nan nan nan nan nan nan nan nan nan nan nan nan nan nan nan nan nan nan nan nan nan nan nan nan nan nan nan nan nan nan nan nan nan nan nan nan nan nan nan nan nan nan nan nan nan
nan 4 7 8 7 8 8 7 5 4 3 4 5 5 6 5 5 5 5 6 6 7 8 7 6 4 4 6 8 8 3 -2 -4 -5 -3 -1 2 6 8 7 7 8 7 6 6 7 6 3 4 5 4 4 4 4 5 7 6 6 6 6 7 8 9 11 11 8 3 1 5 7 6 5 4 4 4 4 5 5 6 5 5 4 4 4 4 4 4 5 6 7 8 7 7 6 6 6 6 7 8 8 8 7 nan
nan 4 5 5 4 4 5 6 5 4 4 4 5 5 6 6 5 4 4 5 7 8 9 9 8 8 7 7 8 8 5 3 3 2 2 -0 1 4 7 7 8 8 9 9 9 9 8 4 4 4 4 4 4 4 4 6 6 6 5 6 7 8 9 11 11 11 3 2 4 5 6 7 5 4 4 4 5 5 5 5 5 5 4 4 4 3 4 4 5 5 7 7 7 7 6 6 6 7 8 9 10 11 nan
nan 4 2 2 1 1 4 5 4 3 2 3 4 5 6 6 5 5 4 5 6 8 10 9 7 6 6 8 9 9 6 6 8 9 7 5 3 3 4 7 7 8 10 10 10 10 9 6 5 5 5 5 4 4 5 5 5 5 5 6 7 8 8 10 12 12 5 4 3 4 5 6 7 5 5 4 5 5 5 5 6 6 5 5 4 4 3 3 4 4 5 6 6 6 6 5 5 6 6 7 8 10 nan
nan 6 3 2 3 4 6 7 7 6 3 3 3 4 5 5 5 5 5 5 6 6 7 7 6 5 6 10 11 10 9 12 14 13 9 8 6 5 4 5 7 8 10 10 10 9 8 8 7 6 5 5 5 5 6 6 5 6 5 6 7 7 6 9 12 12 9 5 3 5 6 6 7 6 5 4 4 5 5 6 7 7 7 6 5 4 3 3 4 4 4 5 5 5 5 5 5 5 6 6 6 7 nan
nan 10 9 6 6 6 8 10 10 9 8 6 5 5 4 4 4 4 5 6 7 8 6 4 3 3 5 9 12 14 15 16 17 15 12 8 6 3 4 3 5 8 9 10 10 9 8 7 6 7 6 6 5 6 7 6 6 6 6 6 5 4 5 8 11 13 12 7 6 6 7 7 8 7 6 4 4 4 5 6 8 8 9 7 6 4 3 3 4 4 4 4 4 5 4 5 5 5 5 6 6 6 nan
nan 10 12 9 7 4 6 10 12 11 10 8 6 5 5 6 6 5 5 6 9 11 8 4 2 2 4 7 10 13 13 12 11 10 11 9 8 6 5 4 5 7 7 8 9 9 7 6 6 6 6 6 6 6 7 7 6 5 5 5 5 3 4 6 9 13 13 10 8 8 9 9 9 8 6 4 4 4 6 7 8 8 9 8 7 5 4 4 4 4 4 4 4 4 4 4 4 4 5 6 6 6 nan
nan 9 10 7 5 3 4 6 10 11 9 5 5 4 5 6 7 7 6 6 9 11 10 7 7 7 8 8 5 4 4 5 5 6 8 10 10 10 10 8 6 5 5 6 8 9 6 5 6 6 6 6 7 6 6 6 7 6 6 5 5 5 4 5 7 10 12 12 10 9 9 10 10 9 5 4 3 4 6 7 7 8 8 8 8 7 6 5 6 6 4 4 4 4 4 4 4 4 5 5 6 6 nan
nan 12 8 4 3 4 5 5 7 8 7 4 3 4 4 5 4 5 5 6 8 11 12 12 11 10 9 6 2 -0 0 1 1 3 7 11 13 11 8 7 6 5 5 5 6 8 5 2 5 5 6 6 7 7 5 6 7 6 6 5 5 5 4 4 5 8 10 13 13 12 10 10 9 9 6 4 4 5 6 7 7 7 7 7 7 8 8 7 7 7 5 4 4 4 4 4 4 4 4 5 6 6 nan
nan 16 13 9 6 5 5 7 6 6 4 3 2 3 3 3 3 2 4 5 7 9 11 13 14 13 9 3 2 -0 1 1 2 4 7 12 11 9 4 4 4 5 6 6 6 7 3 1 4 4 6 7 7 7 7 6 7 7 7 6 4 3 3 3 4 6 8 14 14 15 11 10 8 8 6 6 5 6 6 6 6 6 7 7 7 8 9 8 8 7 5 5 4 4 4 4 3 4 4 5 5 6 nan
nan 15 17 18 13 9 5 5 6 5 3 4 4 4 5 5 5 4 4 5 6 7 8 11 13 13 10 5 3 2 2 4 5 7 9 9 8 7 5 5 5 6 7 7 7 8 4 2 4 4 5 7 7 7 7 7 7 7 7 6 4 2 2 3 3 4 8 14 15 15 11 10 7 6 6 7 7 7 7 6 6 6 6 7 7 8 8 8 7 6 5 5 5 5 5 4 4 3 4 4 5 6 nan
nan 10 12 17 17 13 8 5 5 5 6 7 7 7 7 7 7 7 5 5 5 5 5 7 9 10 11 9 6 5 4 6 8 9 9 7 6 7 7 7 7 7 8 9 9 9 7 5 5 4 5 6 7 7 7 7 7 6 6 5 4 3 3 3 3 3 7 11 15 15 13 10 8 6 6 8 8 8 6 6 6 6 7 6 6 7 7 7 6 5 5 5 5 5 5 5 4 4 4 4 5 5 nan
nan 7 8 10 11 12 11 8 7 7 7 8 8 8 8 7 6 5 4 4 4 4 4 5 6 7 9 9 9 8 7 8 9 9 8 7 7 7 7 7 8 8 9 10 10 11 9 7 7 7 6 6 7 6 6 6 7 6 5 5 3 3 3 3 3 3 5 9 13 14 13 10 9 8 7 9 9 8 6 6 6 6 6 6 5 6 6 6 5 5 5 5 5 5 5 5 4 4 4 4 4 5 nan
nan 9 8 7 8 8 10 10 9 8 8 8 8 7 7 5 4 3 3 4 4 4 4 4 5 6 7 8 9 9 9 9 8 8 7 7 7 7 6 6 6 7 8 10 10 10 9 8 8 9 7 6 7 7 6 5 6 6 4 4 4 4 4 4 3 3 4 7 12 14 13 10 9 9 9 11 10 8 6 6 6 6 6 5 5 5 5 5 5 5 5 5 5 5 5 5 5 4 4 4 4 5 nan
nan 9 9 8 8 9 9 10 10 10 10 9 8 7 6 5 4 4 4 4 4 4 4 4 5 6 7 8 8 8 8 8 7 7 7 7 7 6 6 5 5 6 7 9 8 8 7 7 8 8 8 7 7 8 8 6 6 6 4 4 4 5 5 5 4 3 3 6 11 15 14 10 8 7 10 13 12 9 6 6 6 6 6 5 5 5 5 5 5 5 5 5 5 5 5 5 5 5 5 5 5 4 nan
nan 6 7 7 8 8 9 10 11 11 11 10 9 8 7 6 6 5 5 5 5 5 5 5 5 6 7 7 7 6 8 8 8 8 7 7 6 6 5 5 5 5 7 7 7 7 6 6 7 7 7 7 7 8 8 7 6 5 4 4 5 5 5 6 5 4 3 4 10 15 16 11 8 7 11 13 13 10 7 6 6 7 6 6 5 5 6 5 5 5 5 5 5 5 5 5 5 5 5 5 4 4 nan
nan 4 4 4 4 4 5 7 8 9 10 11 11 10 9 8 7 6 6 6 6 5 5 5 5 5 6 6 6 6 9 10 10 10 9 8 8 7 6 6 7 7 7 7 6 7 7 7 7 7 8 7 7 7 7 7 7 6 5 4 5 5 6 7 7 5 4 4 9 15 19 14 10 7 10 12 13 10 7 7 7 7 6 6 6 6 6 6 5 5 6 6 5 5 5 5 5 5 5 5 4 4 nan
nan 3 2 1 -1 -1 0 3 4 5 7 9 11 11 11 11 10 9 8 7 6 5 5 5 5 4 4 5 6 7 8 10 10 11 12 11 10 9 9 10 10 9 8 7 7 7 8 8 7 7 8 8 7 7 7 7 8 7 6 5 5 5 7 7 7 7 5 5 9 16 21 17 11 7 7 10 12 10 8 7 7 7 7 7 7 6 6 5 5 5 5 6 6 6 6 6 6 5 5 5 5 4 nan
nan 6 4 2 0 -0 1 4 6 8 10 12 13 14 15 16 16 16 14 12 10 8 7 7 6 5 5 7 8 9 8 8 8 8 10 11 11 11 11 12 11 9 7 7 7 7 7 8 8 7 8 9 8 7 7 8 9 8 7 5 5 6 7 8 8 7 6 5 9 16 21 18 11 6 5 8 11 10 9 7 8 7 7 7 7 6 6 5 5 5 5 6 6 6 6 6 6 6 5 5 5 5 nan
nan 9 8 7 6 6 7 9 13 17 19 17 17 18 19 20 20 18 15 15 15 14 13 12 12 13 12 11 10 9 7 7 7 7 7 9 10 10 11 10 8 7 7 7 7 7 8 8 7 7 7 8 8 8 7 7 8 9 8 6 6 6 6 8 8 8 7 6 9 16 20 16 9 4 3 7 10 12 10 8 8 8 8 7 7 6 6 6 6 6 6 6 6 6 6 6 6 6 6 6 5 5 nan
nan 10 11 13 14 14 16 16 17 19 18 14 16 18 19 19 18 14 10 11 13 14 15 16 18 17 15 12 10 8 7 7 7 7 7 7 8 8 8 7 7 6 6 7 7 7 7 7 7 7 7 7 8 9 8 6 7 8 8 7 7 6 6 7 8 8 7 7 9 15 19 14 7 3 2 5 9 13 11 8 8 8 8 8 7 6 6 6 6 6 6 6 6 6 6 6 6 6 6 6 6 6 nan
nan 10 13 14 15 16 16 16 14 12 6 5 10 12 13 13 13 12 11 10 8 9 13 15 15 13 11 9 8 7 7 7 6 6 7 7 7 6 6 6 6 6 6 6 6 7 7 7 7 7 7 7 8 8 8 6 6 7 8 8 7 7 6 7 8 8 8 7 9 13 18 13 6 2 2 5 8 14 12 9 8 8 8 7 7 6 6 6 6 6 6 6 6 6 6 6 6 6 6 7 7 7 nan
nan 9 10 10 10 10 10 11 9 8 5 4 7 7 8 9 9 12 14 11 7 6 8 9 8 8 8 8 8 7 7 6 5 5 6 6 6 6 6 5 5 6 6 6 6 6 6 6 6 6 6 7 7 7 7 6 6 6 6 7 7 7 7 7 7 8 8 8 8 11 16 15 8 2 2 4 8 14 14 10 8 8 7 7 6 6 6 6 6 6 6 6 6 6 7 7 6 6 7 8 8 8 nan
nan 8 7 7 6 6 6 7 8 8 9 8 7 6 6 6 7 9 11 9 8 8 9 8 7 8 8 8 8 7 7 7 6 5 5 5 4 5 6 6 5 6 6 6 6 6 6 6 6 6 6 6 6 7 6 6 6 5 5 6 6 7 7 7 7 7 8 8 8 10 13 16 11 5 2 2 6 12 15 12 8 7 6 6 6 6 6 6 6 6 6 6 6 7 7 7 7 7 7 8 9 9 nan
nan 8 6 6 6 6 6 6 6 7 8 9 8 7 6 5 5 7 8 8 9 11 11 10 9 8 8 7 7 7 7 8 8 6 6 6 5 4 4 5 6 6 6 6 6 6 6 6 6 6 6 7 7 7 7 7 7 6 5 5 6 6 6 6 6 7 7 8 8 9 11 17 14 10 3 2 4 8 14 14 9 7 5 5 5 5 6 6 6 6 6 6 6 7 7 7 7 7 8 9 9 9 nan
nan 8 7 7 7 7 7 7 7 7 8 8 7 6 5 5 4 5 7 8 9 9 9 8 8 7 6 6 6 6 5 6 7 7 8 8 7 5 3 4 5 6 5 5 6 6 6 7 6 6 6 7 7 7 9 10 9 7 6 5 5 6 6 6 6 6 7 7 8 8 10 15 16 14 7 3 3 5 12 15 11 7 5 4 4 5 5 5 5 5 6 6 6 7 7 7 7 7 8 9 9 8 nan
nan 9 8 7 8 8 8 7 8 8 8 8 7 6 6 5 3 3 6 9 9 9 8 8 8 7 7 9 8 7 6 5 7 9 10 9 9 8 6 6 6 6 6 5 5 6 7 7 7 6 6 6 7 7 10 11 11 9 8 7 6 6 6 6 6 6 6 7 7 7 9 11 16 17 13 6 5 4 9 13 12 8 5 3 3 3 4 4 4 4 5 6 6 7 7 7 7 7 7 8 8 7 nan
nan 9 9 8 8 8 8 8 8 8 8 8 8 8 10 10 9 7 8 9 9 8 7 8 9 9 9 10 11 10 9 10 9 9 8 8 9 10 10 9 8 8 8 6 6 6 6 7 7 7 7 6 6 6 8 12 12 11 9 8 7 6 6 6 6 6 6 6 7 7 8 9 12 16 15 10 7 5 7 10 11 10 7 3 3 3 3 3 3 4 5 6 6 7 7 7 7 7 6 6 6 6 nan
nan 10 10 9 9 9 9 9 8 8 8 8 8 8 10 12 11 10 8 7 5 5 5 8 9 9 9 8 9 9 9 8 8 7 6 6 8 10 12 11 10 9 8 7 7 7 7 7 7 7 8 6 5 5 6 10 12 12 10 9 8 7 7 6 6 6 7 7 7 7 7 8 9 12 14 12 9 6 6 7 8 10 7 4 3 3 3 3 4 4 5 5 6 7 7 7 7 7 6 5 5 5 nan
nan 13 12 11 11 10 10 9 9 8 8 8 7 7 8 9 9 9 7 5 5 6 8 8 7 7 7 7 7 7 7 8 8 8 8 8 8 8 9 9 9 8 7 8 9 10 10 9 8 7 9 9 7 6 6 9 12 12 10 9 9 9 9 8 7 7 7 7 7 7 7 7 7 8 10 13 11 9 7 6 6 7 7 6 4 4 3 4 4 5 5 6 6 7 7 6 6 6 6 5 5 5 nan
nan 14 14 13 12 11 10 10 9 9 9 9 8 7 7 8 8 8 7 6 7 9 10 7 7 8 8 7 8 8 9 9 9 10 11 11 9 7 5 5 6 6 7 8 9 10 11 11 10 9 8 9 8 8 7 8 12 14 13 11 10 10 10 9 8 8 8 8 8 8 7 7 7 7 9 11 12 12 10 7 6 6 7 8 6 5 4 4 5 5 5 6 6 6 6 6 6 6 6 5 5 4 nan
nan 12 13 13 12 12 11 9 8 9 9 10 9 8 8 9 8 8 8 7 8 10 10 8 8 9 9 8 9 9 10 10 9 9 9 9 9 8 7 5 4 5 6 7 7 8 9 10 10 9 8 7 6 7 8 8 10 14 16 14 12 11 11 11 10 9 9 9 9 9 8 8 8 7 8 9 11 12 13 11 9 6 7 9 8 7 6 6 6 5 5 5 6 6 6 6 6 5 5 5 5 5 nan
nan 10 10 11 11 12 11 9 8 8 8 9 8 8 8 8 8 8 8 9 9 9 8 8 9 9 9 8 8 8 9 9 7 7 7 8 9 9 10 9 7 6 7 6 7 7 7 8 8 8 8 7 6 5 6 7 9 11 16 17 16 14 12 12 12 11 10 10 10 9 9 8 8 8 8 7 9 11 15 14 12 9 8 9 10 9 8 7 7 8 7 6 6 6 6 6 5 5 5 5 5 5 nan
nan 9 9 9 11 11 10 10 9 9 9 9 8 7 6 7 7 8 7 8 9 10 9 9 9 10 10 8 7 7 8 8 6 5 5 6 7 8 10 12 11 11 9 7 6 6 7 7 8 8 8 8 7 5 5 6 8 9 13 15 15 15 14 13 13 13 13 12 11 10 9 9 8 8 8 8 8 9 13 15 14 12 11 10 11 11 10 10 9 9 8 7 6 6 6 6 5 5 5 5 5 5 nan
nan 8 8 9 9 9 9 11 11 10 9 9 8 7 7 8 9 10 9 8 9 9 9 9 9 9 9 8 7 7 7 8 7 7 7 6 7 8 10 11 12 12 12 10 9 8 7 7 8 8 8 8 8 7 6 6 7 8 10 13 14 16 17 16 16 15 14 13 12 11 10 9 8 8 8 8 8 9 12 15 15 14 12 11 11 11 12 11 10 9 9 7 7 6 6 6 6 6 5 6 6 6 nan
nan 7 7 8 8 8 9 10 9 8 8 9 9 10 10 11 11 11 10 8 8 8 9 9 9 8 7 7 8 8 8 8 8 9 10 9 9 9 10 9 9 9 11 12 12 11 9 8 7 8 8 9 9 9 7 7 7 6 8 11 13 15 18 19 20 19 17 15 14 12 11 10 9 9 9 9 9 9 11 14 15 14 12 11 11 10 11 11 10 9 8 8 7 6 6 7 7 7 7 7 7 7 nan
nan 8 8 7 7 7 8 7 6 5 8 11 11 11 12 12 11 10 9 8 7 7 9 9 8 7 7 7 8 8 8 8 8 9 10 11 10 10 9 9 9 9 9 10 11 11 11 9 8 7 8 8 8 9 8 8 8 6 6 8 10 12 14 16 18 20 20 18 15 14 13 12 11 10 10 9 9 9 11 14 14 14 12 11 10 10 10 10 9 9 9 9 9 6 6 7 8 8 8 7 7 7 nan
nan 8 8 7 7 7 7 6 4 5 9 11 12 11 11 10 10 9 9 8 8 8 8 8 8 9 8 7 7 8 7 8 8 8 8 9 9 9 9 10 10 9 8 8 8 9 9 9 8 8 8 8 7 7 8 8 8 7 7 7 7 8 10 10 11 14 18 20 19 17 15 14 14 13 12 11 9 8 10 14 13 13 11 10 10 10 9 8 8 9 9 11 10 7 5 6 7 8 8 8 8 7 nan
nan 8 7 7 8 8 7 4 3 7 10 11 11 10 9 9 9 9 10 9 10 10 9 8 8 8 8 7 7 8 8 7 7 7 7 7 7 8 9 10 10 9 8 8 7 7 7 8 8 8 8 8 8 8 8 7 8 8 7 7 7 7 7 8 8 8 11 17 19 20 17 16 16 16 15 13 12 10 11 14 14 12 10 9 9 9 8 8 7 7 8 10 11 10 6 6 7 8 8 8 8 7 nan
nan 8 7 7 8 8 6 3 5 9 11 10 10 9 9 10 10 10 10 11 11 11 10 8 7 7 7 7 8 8 9 8 7 6 6 6 6 7 8 9 9 9 9 7 6 6 7 7 7 7 8 8 9 10 8 8 8 8 8 8 8 6 6 7 7 6 7 10 14 18 19 16 16 17 17 17 16 14 14 16 17 15 10 8 7 7 7 7 6 5 5 8 10 10 8 7 7 7 8 8 8 7 nan
nan 8 8 7 8 7 4 4 8 11 11 10 9 9 9 10 10 10 10 11 11 11 11 9 6 5 7 8 8 9 9 8 8 7 6 6 6 6 7 8 9 9 9 8 6 6 7 8 9 9 9 9 9 9 8 8 8 8 9 9 8 7 5 6 6 6 6 7 9 12 17 17 15 15 17 18 18 17 17 19 21 21 16 9 7 6 5 5 4 4 4 5 7 8 9 9 7 7 7 8 8 8 nan
nan 8 8 7 8 7 5 6 9 10 10 10 9 9 9 10 10 10 10 10 10 10 11 10 7 6 6 7 8 8 7 7 8 9 8 7 7 6 6 7 7 8 9 9 7 7 8 9 9 9 8 8 8 7 8 7 7 7 7 9 9 9 7 6 6 6 6 6 7 8 12 15 14 13 13 15 16 17 17 18 21 24 23 15 9 6 4 3 3 3 3 4 4 5 7 8 7 6 6 7 7 8 nan
nan 8 8 8 8 7 6 7 9 10 10 10 9 9 9 9 9 10 10 10 10 9 10 11 10 8 7 7 7 7 7 6 8 9 10 9 9 7 5 6 7 8 9 9 8 8 8 9 8 7 6 7 7 9 9 8 8 7 7 9 11 11 9 7 6 6 6 6 6 6 9 13 14 14 12 12 14 15 15 14 15 19 23 21 15 10 5 4 3 3 3 3 3 3 4 5 5 5 5 6 7 7 nan
nan 9 9 8 7 5 4 7 10 11 10 9 9 9 9 9 9 10 11 11 10 9 10 11 11 10 8 7 7 7 7 7 8 9 9 9 8 8 7 7 8 8 9 9 9 8 8 9 9 8 7 9 10 12 13 11 10 9 9 9 11 12 11 8 6 6 6 5 5 6 6 9 12 15 15 13 14 15 16 14 11 12 16 20 20 17 12 8 6 4 3 2 2 2 2 3 4 4 5 7 8 7 nan
nan 10 10 8 6 4 5 9 11 11 9 8 9 9 9 9 10 10 11 10 10 9 9 10 11 11 9 7 7 8 7 8 8 8 7 8 8 8 8 8 9 9 8 9 9 9 9 8 9 10 10 10 11 12 14 13 12 11 10 9 9 11 11 9 7 6 5 5 6 7 7 6 7 10 14 14 15 16 18 17 13 10 9 13 18 21 21 16 12 8 5 3 2 1 1 2 3 3 5 7 9 10 nan
nan 10 9 7 6 6 8 11 12 11 8 8 8 9 9 9 9 8 8 9 9 8 8 7 9 10 10 8 7 8 8 9 8 8 8 9 9 9 7 7 9 10 9 8 8 9 10 9 9 10 9 9 9 10 11 12 11 11 11 11 10 11 11 10 8 7 5 5 6 7 8 7 6 5 8 10 12 14 17 19 16 12 8 7 10 15 20 22 20 17 12 7 5 3 2 1 1 2 4 6 8 10 nan
nan 10 8 7 7 7 9 11 11 10 8 8 8 7 7 7 6 6 6 7 8 8 8 8 7 8 11 11 10 9 9 9 10 10 11 10 10 11 9 7 9 10 10 9 8 8 8 10 9 9 9 8 8 8 9 10 9 10 10 11 11 11 11 11 11 9 8 7 7 7 7 8 7 5 6 7 8 10 14 17 17 15 11 7 6 8 12 17 22 25 25 18 12 7 5 3 2 2 3 4 6 8 nan
nan 10 8 7 8 9 10 10 10 9 8 7 7 6 6 5 4 4 5 7 7 9 10 10 9 7 7 12 13 12 12 11 11 10 10 11 11 12 13 12 10 9 10 9 9 8 7 7 8 9 9 9 9 9 8 9 8 8 8 9 10 11 10 10 11 11 11 10 10 8 6 7 8 7 6 7 7 8 9 12 16 18 17 12 8 5 5 8 13 21 30 30 22 14 9 6 5 4 4 4 5 6 nan
nan 11 9 8 8 10 9 8 9 9 9 8 7 6 5 5 5 5 6 7 9 10 11 13 12 10 8 10 12 13 13 13 13 11 8 8 8 9 11 12 11 10 10 11 11 11 9 6 7 8 8 9 9 9 9 8 8 7 7 8 8 10 10 10 10 10 12 13 13 12 9 7 7 8 8 8 7 7 6 7 10 14 19 19 15 10 6 4 6 10 20 29 28 23 16 11 9 7 6 6 7 7 nan
nan 9 8 8 8 9 9 8 9 10 9 8 6 6 6 5 6 8 11 11 11 11 11 12 14 14 13 11 12 12 12 12 12 9 7 7 7 7 6 9 10 9 9 11 13 14 13 8 7 7 7 8 8 9 9 9 8 7 7 7 7 9 10 10 10 9 10 11 11 13 13 11 9 9 9 8 7 7 6 5 6 8 14 19 20 18 14 10 7 6 9 18 26 28 24 18 13 10 8 7 7 6 nan
nan 7 8 9 9 10 9 9 10 9 7 7 8 9 8 8 11 14 15 14 13 11 9 10 12 13 14 12 11 10 10 10 10 6 5 9 11 11 10 8 6 6 9 9 12 14 16 12 11 9 6 5 6 8 10 10 9 7 6 7 7 8 9 10 10 9 8 7 7 7 9 10 10 10 10 9 7 7 7 6 5 5 7 13 16 17 16 15 13 11 7 8 15 22 28 26 21 15 9 6 5 5 nan
nan 7 8 10 10 10 9 9 9 7 8 11 11 11 10 11 13 15 13 12 12 11 10 9 9 11 12 11 10 9 8 9 9 7 6 7 9 10 13 10 7 6 8 7 8 8 11 13 14 14 12 8 6 7 9 10 10 9 8 7 8 8 8 9 10 10 9 8 7 6 4 4 4 6 8 8 7 7 7 8 8 6 5 7 10 13 14 14 14 15 10 6 7 11 19 27 29 24 14 7 5 5 nan
nan 7 9 10 9 10 9 8 8 8 10 10 9 10 8 8 9 10 10 10 9 10 10 9 8 9 9 9 9 9 9 9 9 8 9 8 5 2 6 10 10 10 10 12 9 5 5 10 13 15 15 14 12 9 9 9 10 11 10 9 8 8 8 8 9 10 10 11 10 10 8 6 4 3 1 3 5 6 7 8 8 9 9 6 6 8 12 15 15 15 12 8 6 5 7 14 24 31 27 17 11 7 nan
nan 7 9 10 10 9 8 7 7 9 10 11 9 9 6 5 7 8 7 7 6 7 7 9 11 10 9 7 7 8 10 10 9 8 8 10 8 2 1 8 9 10 10 13 11 9 6 9 10 11 10 14 16 14 10 9 9 10 10 9 8 8 8 8 8 8 9 11 12 13 13 12 11 9 4 2 4 5 6 7 7 7 9 9 7 5 5 11 15 14 13 11 8 5 4 6 13 24 31 27 18 11 nan
nan 9 10 9 9 8 7 7 9 9 10 11 10 9 7 7 8 7 5 5 5 5 8 10 11 11 10 8 7 6 8 10 11 10 8 9 10 6 1 3 4 4 4 7 9 9 8 9 11 11 8 10 15 17 15 12 8 7 8 8 7 7 7 8 7 7 7 8 9 12 13 13 14 15 12 8 7 6 6 6 6 5 5 8 9 8 4 6 10 11 12 14 13 10 7 7 8 14 24 29 24 18 nan
nan 9 8 7 7 8 9 9 10 10 11 11 10 9 9 9 8 7 7 7 8 9 11 11 9 10 8 8 8 7 7 10 12 11 9 7 8 7 6 4 3 1 2 4 8 9 8 8 9 11 9 9 12 13 13 14 12 10 9 9 9 8 8 9 9 8 8 8 7 8 9 11 13 14 14 12 11 10 9 7 6 6 5 6 9 11 8 5 6 8 9 12 14 15 12 9 9 10 17 24 26 24 nan
nan 7 7 8 9 10 11 11 10 11 12 10 9 9 9 9 9 9 10 10 11 10 9 10 10 11 9 9 9 9 7 8 9 9 9 8 8 7 6 6 6 7 5 7 9 9 10 9 8 8 8 8 10 8 8 10 13 14 13 12 11 11 11 11 10 10 11 10 9 8 8 9 10 11 13 12 13 13 13 10 8 7 6 6 7 11 12 8 6 5 7 8 9 16 16 11 10 10 12 16 20 23 nan
nan 7 8 10 10 11 11 11 10 11 10 8 9 10 10 9 9 9 8 8 8 5 6 10 11 10 11 10 9 10 8 6 6 8 9 10 11 9 5 3 2 5 9 12 13 10 10 8 10 6 7 6 7 8 7 8 11 12 13 12 11 11 12 11 10 9 10 10 10 9 9 10 10 10 11 12 12 14 15 12 11 10 9 8 7 9 12 10 8 5 6 6 7 12 14 11 10 9 10 11 13 16 nan
nan 8 10 10 8 8 9 11 10 10 8 8 10 11 10 9 9 8 7 6 4 4 9 12 10 9 10 9 9 9 11 9 7 7 8 10 13 15 12 6 3 4 8 12 13 12 9 6 7 7 8 6 5 5 6 9 9 10 10 9 8 9 11 11 10 9 9 9 9 9 8 9 10 10 11 12 11 12 14 13 12 12 11 10 10 10 11 9 9 8 7 7 7 9 10 9 8 8 10 11 11 13 nan
nan 9 10 8 6 7 10 11 11 10 8 9 11 11 10 9 8 7 5 5 5 7 11 11 11 12 11 10 10 9 12 13 12 9 8 7 10 14 14 11 10 10 9 8 10 13 12 12 9 9 7 9 7 5 3 7 8 10 10 8 7 7 8 10 11 11 10 9 9 9 8 7 7 8 9 10 11 11 12 12 11 11 11 9 10 11 11 9 10 10 10 9 8 8 7 7 6 7 10 12 12 13 nan
nan nan nan nan nan nan nan nan nan nan nan nan nan nan nan nan nan nan nan nan nan nan nan nan nan nan nan nan nan nan nan nan nan nan nan nan nan nan nan nan nan nan nan nan nan nan nan nan nan nan nan nan nan nan nan nan nan nan nan nan nan nan nan nan nan nan nan nan nan nan nan nan nan nan nan nan nan nan nan nan nan nan nan nan nan nan nan nan nan nan nan nan nan nan nan nan nan nan nan nan nan nan nan
CAPE
1789 2030 2729 3300 3198 3198 3296 3344 3190 3190 3087 2984 3030 3030 3024 2964 2964 3049 3188 3286 3286 2842 2367 2250 2689 2689 3060 3346 3771 3771 3047 1828 1740 1740 2118 2703 2703 2994 2985 2927 2927 3013 2958 2813 2810 2810 2490 1961 372 372 218 273 323 323 243 295 295 684 99 9 9 144 318 1534 2554 2554 2350 1798 2395 2395 2691 2548 2428 2428 2326 2256 2256 2099 1902 1798 1798 1915 1898 1713 1698 1698 1808 1967 2091 2091 2219 2255 2243 2243 2234 2278 2278 2222 2370 2420 2420 2574 2730
1870 2075 2634 3338 3331 3331 3329 3376 3221 3221 3071 3018 3017 3017 3013 2954 2954 2896 2985 3081 3081 3075 2915 2820 2783 2783 2397 2840 3507 3507 2993 1807 1237 1237 1421 2003 2003 2798 2927 2871 2871 2910 2950 2940 2652 2652 2168 1349 434 434 192 118 539 539 444 307 307 297 119 12 12 74 376 1694 2547 2547 2298 1562 2368 2368 2595 2548 2447 2447 2424 2303 2303 2052 1812 1882 1882 2000 2030 1837 1737 1737 1763 1878 1953 1953 2118 2198 2233 2233 2318 2312 2312 2407 2507 2609 2609 2714 2816
1887 2237 2390 2775 3180 3180 3220 3263 3257 3257 3106 2957 2908 2908 2906 2946 2946 2887 2880 2974 2974 3116 3198 3283 3126 3126 2902 2894 3498 3498 3223 2051 1315 1315 1309 1540 1540 2443 2912 2805 2805 2848 2944 2884 2453 2453 1855 1420 476 476 261 275 677 677 514 274 274 95 37 24 24 31 387 1689 2395 2395 2766 2102 2268 2268 2632 2626 2697 2697 2415 2254 2254 2098 1987 2058 2058 2132 2212 2057 1906 1906 1802 1833 1820 1820 2023 2145 2224 2224 2211 2248 2248 2339 2439 2591 2591 2748 2851
2322 2310 2399 2206 2318 2318 3027 3402 3239 3239 3035 2798 2615 2615 2706 2794 2794 2784 2775 2913 2913 3050 3184 3268 3297 3297 3135 3202 3776 3776 3695 2569 1897 1897 1681 1679 1679 2288 2921 2848 2848 2829 2874 2730 2314 2314 1761 1639 836 836 411 353 606 606 506 461 461 296 162 51 51 41 700 1642 2207 2207 2846 2699 2600 2600 2558 2525 2706 2706 2457 2252 2252 2188 2213 2287 2287 2268 2297 2236 2036 2036 1979 1876 1818 1818 1975 2005 2171 2171 2155 2142 2142 2180 2223 2370 2370 2522 2676
2446 2214 2017 1924 2070 2070 2528 2790 2723 2723 2794 2763 2556 2556 2512 2600 2600 2637 2674 2805 2805 2751 2513 2569 2424 2424 2539 2786 3192 3192 3394 3009 2745 2745 2311 2307 2307 2576 3013 2981 2981 2951 2890 2525 2049 2049 1551 1782 1222 1222 589 365 537 537 444 624 624 948 539 53 53 86 1182 1672 2196 2196 2636 2778 2436 2436 2484 2429 2711 2711 2500 2296 2296 2277 2349 2375 2375 2355 2288 2367 2260 2260 2160 1968 1859 1859 1884 1914 2077 2077 2104 2045 2045 2035 2027 2160 2160 2306 2506
2062 2185 2108 2065 2212 2212 2455 2578 2621 2621 2553 2612 2596 2596 2458 2367 2367 2538 2617 2520 2520 2114 1903 1875 1849 1849 1919 2134 2648 2648 2718 2959 3160 3160 2931 2907 2907 3141 3217 3158 3158 3131 2824 2324 1782 1782 1422 1692 1249 1249 938 598 585 585 458 644 644 794 748 206 206 289 1361 1741 2178 2178 2475 2763 2619 2619 2650 2683 2750 2750 2589 2431 2431 2412 2488 2323 2323 2300 2189 2405 2488 2488 2338 2145 1990 1990 1879 1910 2030 2030 2056 1998 1998 1901 1890 1969 1969 2149 2294
2068 2395 2518 2433 2429 2429 2598 2675 2446 2446 2399 2611 2581 2581 2507 2406 2406 2488 2608 2556 2556 2282 2010 1695 1395 1395 1206 1810 2650 2650 2753 2835 2980 2980 3028 2880 2880 2876 2641 2935 2935 3172 2817 2270 1599 1599 1165 1355 1315 1315 1186 812 572 572 445 693 693 742 532 439 439 849 1427 1770 2118 2118 2402 2785 3035 3035 2933 2754 2691 2691 2627 2614 2614 2645 2531 2321 2321 2205 2228 2349 2576 2576 2520 2321 2122 2122 1961 1905 2026 2026 2098 1994 1994 1814 1762 1794 1794 1958 2137
2122 2406 2690 2452 2115 2115 1946 2457 2711 2711 2612 2743 2594 2594 2516 2541 2541 2573 2606 2549 2549 2412 2137 1982 1690 1690 1463 2058 2298 2298 2268 2481 2716 2716 2749 2654 2654 2632 2781 2708 2708 3040 2717 2305 1578 1578 1096 1134 1297 1297 1290 1083 810 810 512 553 553 558 424 419 419 1160 1453 1760 2066 2066 2426 2962 3102 3102 3019 2841 2592 2592 2667 2800 2800 2830 2526 2319 2319 2247 2222 2252 2520 2520 2608 2501 2297 2297 2091 1986 2020 2020 2093 2033 2033 1852 1677 1709 1709 1824 2032
2343 2225 2619 2329 1979 1979 1777 1895 2581 2581 2787 2864 2763 2763 2695 2765 2765 2794 2737 2676 2676 2623 2391 2110 1977 1977 2026 2121 1797 1797 1728 1885 2225 2225 2549 2647 2647 2689 3002 2907 2907 2770 2525 2204 1559 1559 1076 1072 1270 1270 1273 1142 1081 1081 885 539 539 351 234 430 430 856 1400 1748 1928 1928 2332 2568 2748 2748 3047 2853 2781 2781 2774 2892 2892 2871 2564 2360 2360 2336 2265 2292 2466 2466 2599 2539 2381 2381 2176 2024 2013 2013 2131 2070 2070 1885 1711 1622 1622 1695 1893
2396 2276 2152 2365 2200 2200 2185 2175 2076 2076 2708 2759 2746 2746 2730 2805 2805 2610 2552 2674 2674 2664 2651 2413 2231 2231 2412 2012 1503 1503 1278 1259 1528 1528 2241 2782 2782 2965 2949 2744 2744 2510 2332 2012 1461 1461 951 1242 1316 1316 1083 1077 985 985 1279 555 555 315 84 659 659 943 1463 1817 1873 1873 2277 2300 2425 2425 3057 2893 2752 2752 2860 2988 2988 2965 2554 2444 2444 2378 2261 2378 2506 2506 2593 2580 2420 2420 2215 2061 2048 2048 2121 2104 2104 2002 1782 1612 1612 1564 1718
2398 2474 2509 2533 2426 2426 2532 2654 2612 2612 2424 2443 2558 2558 2718 2795 2795 2514 2375 2494 2494 2656 2598 2674 2575 2575 2527 2119 1680 1680 1282 1198 1479 1479 2216 2780 2780 2874 2804 2631 2631 2360 2050 1740 1327 1327 866 1225 1369 1369 1124 1086 1112 1112 1065 765 765 484 213 574 574 1257 1565 1840 1944 1944 2231 2450 2348 2348 3078 2930 2685 2685 2850 3026 3026 2955 2589 2475 2475 2461 2393 2466 2545 2545 2584 2526 2413 2413 2253 2054 2082 2082 2110 2092 2092 2033 1851 1678 1678 1590 1624
2445 2483 2606 2814 2790 2790 2769 2842 2829 2829 2594 2533 2644 2644 2801 2875 2875 2680 2582 2707 2707 2686 2538 2572 2649 2649 2555 2317 2039 2039 1878 1817 1977 1977 2472 2622 2622 2704 2677 2504 2504 2157 1694 1363 1047 1047 814 871 1356 1356 1309 1107 1094 1094 896 677 677 375 153 766 766 1437 1666 1990 2105 2105 2223 2528 2613 2613 3344 3167 2753 2753 2871 3054 3054 2939 2621 2552 2552 2490 2475 2551 2629 2629 2620 2563 2405 2405 2291 2090 2073 2073 2143 2124 2124 2020 1879 1703 1703 1572 1526
2455 2442 2516 2547 2663 2663 2779 2896 2880 2880 2866 2848 2825 2825 2892 2963 2963 2856 2797 2737 2737 2628 2522 2511 2543 2543 2492 2482 2294 2294 2164 2270 2412 2412 2530 2595 2595 2641 2520 2301 2301 1872 1346 1036 883 883 667 532 924 924 1337 1286 1002 1002 879 571 571 419 300 1126 1126 1544 1858 2144 2355 2355 2395 2216 2753 2753 3093 2699 2536 2536 2962 3041 3041 2877 2608 2584 2584 2617 2603 2587 2665 2665 2653 2550 2396 2396 2238 2127 2108 2108 2088 2112 2112 2050 1949 1767 1767 1593 1546
2326 2355 2341 2417 2404 2404 2562 2765 2838 2838 2912 2942 2969 2969 2900 2878 2878 2857 2749 2599 2599 2536 2516 2454 2443 2443 2524 2518 2465 2465 2373 2380 2509 2509 2588 2613 2613 2539 2380 2114 2114 1601 1050 940 691 691 531 554 671 671 1127 1386 1099 1099 1125 855 855 735 719 1304 1304 1610 2015 2392 2562 2562 2565 2411 2665 2665 2787 2255 2219 2219 2736 3055 3055 2869 2647 2572 2572 2748 2686 2623 2654 2654 2641 2536 2384 2384 2227 2117 2097 2097 2076 2055 2055 2037 1977 1790 1790 1654 1566
2234 2267 2299 2288 2232 2232 2348 2596 2710 2710 2824 2898 2925 2925 2861 2705 2705 2727 2660 2553 2553 2491 2467 2402 2392 2392 2470 2598 2593 2593 2410 2318 2396 2396 2561 2589 2589 2478 2195 1886 1886 1308 848 848 548 548 642 543 727 727 893 1485 1430 1430 1344 1297 1297 869 1153 1328 1328 1634 2085 2510 2681 2681 2643 2591 2581 2581 2925 2468 1863 1863 2342 2873 2873 2857 2687 2703 2703 2878 2816 2705 2642 2642 2581 2476 2369 2369 2213 2104 2084 2084 2064 2000 2000 1983 1965 1902 1902 1718 1506
1796 1961 2082 2029 2017 2017 2091 2295 2541 2541 2698 2769 2791 2791 2819 2664 2664 2553 2531 2508 2508 2486 2420 2400 2391 2391 2465 2498 2314 2314 1925 1750 1986 1986 2230 2302 2302 2242 2009 1622 1622 1025 634 485 631 631 1121 787 918 918 1246 1625 1532 1532 1447 1402 1402 1158 1296 1393 1393 1699 2152 2630 2757 2757 2720 2767 2718 2718 2894 2796 1907 1907 2056 2482 2482 2805 2673 2782 2782 2958 2896 2737 2674 2674 2518 2460 2354 2354 2243 2132 2069 2069 1964 1947 1947 1930 1956 1979 1979 1789 1609
1341 1615 1694 1773 1764 1764 1835 1991 2280 2280 2482 2642 2708 2708 2778 2711 2711 2601 2491 2464 2464 2484 2464 2448 2439 2439 2470 2366 2008 2008 1348 1144 1439 1439 1788 1898 1898 1882 1699 1365 1365 865 566 300 531 531 1215 1131 1119 1119 1182 1603 1555 1555 1508 1424 1424 1297 1319 1417 1417 1766 2219 2704 2786 2786 2797 2841 2684 2684 2924 2837 2138 2138 1953 2276 2276 2801 2644 2854 2854 3035 2875 2717 2606 2606 2498 2440 2335 2335 2227 2162 2056 2056 1951 1892 1892 1877 1990 1971 1971 1908 1679
878 1063 1289 1441 1432 1432 1585 1861 2142 2142 2432 2594 2756 2756 2873 2762 2762 2651 2584 2516 2516 2493 2472 2458 2535 2535 2476 2283 1843 1843 693 472 670 670 1141 1434 1434 1458 1322 1115 1115 690 254 187 389 389 930 1187 1097 1097 1276 1541 1531 1531 1405 1321 1321 1235 1260 1479 1479 1830 2286 2683 2858 2858 2911 2861 2691 2691 2922 3037 2397 2397 1867 2414 2414 2778 2664 2873 2873 3009 2854 2648 2537 2537 2427 2370 2318 2318 2214 2195 2087 2087 2029 1881 1881 1863 1977 1960 1960 1942 1838
707 919 1175 1243 1192 1192 1341 1650 1836 1836 2164 2502 2803 2803 2921 2947 2947 2881 2727 2620 2620 2556 2534 2517 2543 2543 2395 2075 1247 1247 296 82 169 169 318 733 733 916 835 756 756 350 111 206 220 220 425 740 796 796 917 1204 1191 1191 1225 1142 1142 1210 1238 1498 1498 1850 2308 2703 2881 2881 2978 2915 2681 2681 2895 3012 2447 2447 1807 2297 2297 2736 2744 2951 2951 2940 2739 2581 2469 2469 2357 2257 2208 2208 2200 2183 2119 2119 2062 1958 1958 1982 2007 2034 2034 1972 1915
902 753 708 881 911 911 973 1224 1647 1647 1799 1751 2038 2038 2274 2429 2429 2423 2529 2647 2647 2630 2572 2508 2143 2143 1703 937 234 234 109 38 62 62 69 8 8 2 5 13 13 4 22 4 15 15 165 243 379 379 426 557 497 497 603 741 741 1056 1235 1418 1418 1682 2083 2460 2682 2682 2976 2998 2752 2752 2841 2742 2175 2175 2021 2454 2454 2502 2932 2994 2994 2868 2561 2403 2292 2292 2185 2128 2033 2033 1986 1976 2006 2006 1992 2022 2022 2136 2205 2186 2186 2072 1973
577 547 614 744 847 847 833 913 1501 1501 1705 1359 1426 1426 1697 1759 1759 1743 1688 1667 1667 1921 2119 2013 1228 1228 282 181 102 102 65 50 128 128 416 112 112 8 1 5 5 19 18 nan 3 3 27 89 216 216 157 345 255 255 365 647 647 936 1142 1283 1283 1544 1892 2257 2606 2606 2901 2940 2679 2679 2823 2809 2011 2011 2035 2411 2411 2449 3020 3081 3081 2761 2545 2339 2229 2229 2171 2112 2014 2014 1923 1916 1903 1903 1891 2007 2007 2122 2282 2217 2217 2146 1999
247 564 659 619 879 879 1004 1061 1203 1203 1218 991 871 871 905 999 999 1020 739 640 640 1065 1091 1076 493 493 335 147 75 75 81 196 187 187 444 519 519 294 134 41 41 89 8 nan 14 14 17 48 118 118 77 136 171 171 172 555 555 771 947 1154 1154 1410 1673 2028 2402 2402 2771 2892 2711 2711 2709 2879 1895 1895 1577 2009 2009 2345 2819 3126 3126 2788 2574 2367 2259 2259 2155 2096 1997 1997 1904 1855 1844 1844 1831 1948 1948 2061 2313 2293 2293 2130 2025
226 680 802 825 829 829 781 816 656 656 561 599 509 509 403 420 420 437 408 511 511 677 469 406 359 359 156 111 140 140 272 285 604 604 563 838 838 721 523 276 276 201 99 23 21 21 19 44 83 83 85 61 116 116 133 418 418 618 778 961 961 1203 1458 1806 2166 2166 2556 2777 2739 2739 2653 2915 2063 2063 1285 1523 1523 2191 2502 3130 3130 2855 2652 2444 2332 2332 2182 2079 2023 2023 1928 1879 1785 1785 1773 1888 1888 2001 2251 2277 2277 2205 2007
428 664 581 384 287 287 225 238 298 298 385 377 255 255 208 210 210 273 378 594 594 779 425 211 370 370 213 34 136 136 243 431 466 466 1013 1100 1100 928 614 456 456 265 213 35 20 20 12 17 24 24 41 20 66 66 55 317 317 503 682 786 786 1009 1251 1587 1939 1939 2308 2608 2687 2687 2592 2705 2421 2421 1453 1245 1245 1925 2339 3046 3046 2878 2685 2571 2407 2407 2251 2146 2047 2047 1995 1902 1809 1809 1757 1830 1830 1986 2189 2305 2305 2189 2035
249 228 259 100 112 112 109 195 202 202 212 170 78 78 75 120 120 320 556 723 723 748 566 324 293 293 55 nan 17 17 26 276 375 375 795 1213 1213 1114 741 346 346 217 233 105 27 27 21 15 14 14 11 11 30 30 88 227 227 372 564 690 690 829 1056 1336 1673 1673 2026 2353 2622 2622 2685 2703 2657 2657 1938 1407 1407 1684 2143 2717 2717 2898 2812 2701 2582 2582 2373 2216 2113 2113 2018 1968 1832 1832 1741 1814 1814 1970 2215 2241 2241 2127 1928
129 70 173 129 21 21 2 34 52 52 36 16 7 7 5 73 73 332 514 634 634 654 600 253 13 13 27 19 24 24 38 94 167 167 295 874 874 1004 880 570 570 412 231 160 67 67 27 6 5 5 4 6 18 18 38 163 163 277 429 573 573 699 873 1137 1496 1496 1798 2110 2403 2403 2590 2717 2645 2645 2451 1807 1807 1550 1922 2462 2462 2842 2842 2830 2759 2759 2546 2247 2140 2140 2040 1989 1855 1855 1805 1839 1839 1996 2197 2221 2221 2061 1865
9 25 nan nan 35 35 42 61 15 15 13 19 6 6 34 140 140 294 375 517 517 741 460 467 348 348 432 349 346 346 205 128 81 81 250 434 434 603 677 511 511 420 276 202 112 112 49 5 nan nan 0 0 6 6 15 56 56 153 308 489 489 609 766 983 1253 1253 1576 1876 2156 2156 2414 2635 2633 2633 2598 2298 2298 1796 1816 2319 2319 2775 2943 2959 2880 2880 2762 2366 2168 2168 2064 2010 1875 1875 1827 1861 1861 1976 2179 2157 2157 2043 1847
nan nan nan nan 76 76 163 153 81 81 45 52 91 91 204 234 234 350 532 787 787 957 925 788 549 549 391 204 96 96 42 20 49 49 25 201 201 247 325 290 290 271 139 81 32 32 17 3 nan nan nan nan 1 1 7 20 20 61 199 362 362 524 673 870 1095 1095 1368 1653 1874 1874 2148 2494 2666 2666 2627 2605 2605 2217 1925 2263 2263 2652 2962 2943 2896 2896 2872 2479 2237 2237 2087 2033 1896 1896 1848 1841 1841 1956 2071 2140 2140 1980 1828
nan nan nan nan 24 24 114 159 163 163 126 151 260 260 297 367 367 551 697 573 573 428 505 723 433 433 194 122 31 31 37 59 13 13 3 16 16 10 30 72 72 65 25 4 nan nan nan nan nan nan nan nan 0 0 5 14 14 25 99 268 268 417 584 738 944 944 1207 1482 1732 1732 1994 2277 2630 2630 2730 2686 2686 2609 2291 2259 2259 2594 2957 3027 2865 2865 2931 2586 2303 2303 2154 2056 1962 1962 1914 1821 1821 1893 1965 2032 2032 1963 1811
1 nan nan nan nan nan 5 19 54 54 49 111 237 237 258 300 300 472 422 182 182 79 125 381 204 204 15 34 14 14 12 76 67 67 3 0 0 nan nan 1 1 1 2 nan nan nan nan nan nan nan nan nan nan nan 3 6 6 14 43 199 199 317 473 646 867 867 1122 1358 1598 1598 1851 2093 2449 2449 2792 2848 2848 2793 2856 2791 2791 2820 2902 3085 2940 2940 2952 2704 2421 2421 2225 2128 2032 2032 1940 1890 1890 1876 1946 1972 1972 1904 1840
0 1 nan nan nan nan nan nan nan nan nan 23 126 126 187 228 228 298 219 89 89 33 3 32 72 72 nan nan nan nan nan nan nan nan nan nan nan nan nan nan nan nan nan nan nan nan nan nan nan nan nan nan nan nan nan 1 1 12 26 113 113 224 369 531 768 768 1039 1311 1551 1551 1718 1941 2282 2282 2611 2906 2906 2954 3002 2983 2983 3011 2872 2996 3118 3118 2988 2893 2553 2553 2306 2162 2152 2152 2056 1961 1961 1905 1930 1912 1912 1933 1913
nan 0 1 nan nan nan nan nan nan nan nan nan 31 31 58 57 57 132 65 44 44 90 141 73 21 21 1 nan nan nan nan nan nan nan nan nan nan nan nan 0 0 nan nan 0 nan nan nan nan nan nan nan nan nan nan nan 0 0 1 15 51 51 116 250 447 674 674 961 1261 1467 1467 1631 1887 2078 2078 2430 2819 2819 3086 2982 2947 2947 3023 2824 2910 3055 3055 2994 2894 2739 2739 2490 2201 2189 2189 2133 2079 2079 2022 1961 1985 1985 2008 2078
nan nan 0 2 6 6 nan nan nan nan nan nan nan nan nan nan nan nan 0 14 14 72 154 71 25 25 nan nan nan nan nan nan nan nan nan nan nan nan nan 1 1 nan 4 nan nan nan nan nan nan nan nan nan nan nan nan nan nan nan 10 18 18 38 157 319 554 554 828 1107 1384 1384 1589 1837 2015 2015 2310 2735 2735 3046 2927 2944 2944 2929 2856 2908 2975 2975 3028 2957 2671 2671 2638 2327 2270 2270 2209 2153 2153 2097 2079 2104 2104 2128 2201
nan nan nan 0 2 2 4 0 nan nan nan nan nan nan nan nan nan nan nan nan nan nan nan nan nan nan nan nan nan nan nan nan nan nan 4 nan nan nan nan nan nan nan 0 nan nan nan nan nan nan nan nan nan nan nan nan nan nan nan 5 11 11 16 87 221 391 391 642 900 1227 1227 1508 1751 1967 1967 2204 2515 2515 2915 2935 2923 2923 2952 2948 2973 2956 2956 3041 2913 2823 2823 2686 2461 2304 2304 2240 2222 2222 2211 2196 2177 2177 2247 2232
nan nan nan nan nan nan 0 1 5 5 0 nan nan nan nan nan nan nan nan nan nan nan nan nan nan nan nan nan nan nan nan nan nan nan 5 nan nan nan nan nan nan nan nan nan nan nan nan nan nan nan nan nan nan nan nan nan nan nan 3 12 12 17 41 104 219 219 392 679 978 978 1352 1631 1881 1881 2107 2311 2311 2754 2837 2964 2964 3064 3127 3114 2972 2972 2934 2880 2804 2804 2715 2498 2403 2403 2322 2207 2207 2234 2221 2248 2248 2274 2259
nan nan nan nan nan nan nan nan 1 1 1 nan nan nan nan nan nan nan nan nan nan nan nan nan nan nan nan nan nan nan nan nan nan nan nan nan nan nan nan nan nan nan nan nan nan nan nan nan nan nan nan nan nan nan nan nan nan nan 12 17 17 19 22 38 62 62 175 420 691 691 1095 1476 1758 1758 2014 2203 2203 2585 2779 2790 2790 3080 3200 3230 3127 3127 3007 2881 2799 2799 2713 2531 2558 2558 2411 2290 2290 2265 2244 2272 2272 2255 2287
nan nan nan nan nan nan nan nan nan nan nan nan nan nan nan nan nan nan nan nan nan nan nan nan nan nan nan 16 42 42 35 3 nan nan nan nan nan nan nan nan nan nan nan nan nan nan nan nan nan nan nan nan nan nan nan nan nan nan 73 212 212 137 128 120 91 91 81 219 424 424 765 1110 1485 1485 1847 2155 2155 2468 2705 2760 2760 3075 3228 3025 3142 3142 3129 2930 2681 2681 2632 2536 2598 2598 2550 2425 2425 2304 2273 2254 2254 2238 2225
nan nan nan nan nan nan nan nan nan nan nan nan nan nan 0 2 2 0 nan nan nan nan nan nan nan nan 1 64 108 108 66 87 69 69 24 nan nan nan nan nan nan nan nan nan nan nan nan nan nan nan nan nan nan nan nan nan nan nan 34 220 220 211 201 128 99 99 131 141 219 219 459 746 1120 1120 1571 1946 1946 2319 2679 2659 2659 3041 3102 2964 3280 3280 3250 3015 2766 2766 2605 2517 2488 2488 2660 2560 2560 2390 2312 2242 2242 2223 2168
nan nan nan nan nan nan nan nan nan nan nan nan nan nan nan 0 0 1 nan nan nan nan nan nan nan nan 7 58 117 117 119 156 182 182 79 34 34 11 nan nan nan nan nan nan nan nan nan nan nan nan nan nan nan nan nan nan nan nan 8 162 162 197 165 93 16 16 97 129 36 36 131 357 755 755 1236 1702 1702 2096 2591 2624 2624 2820 2991 2970 3242 3242 3232 3037 2933 2933 2657 2521 2434 2434 2713 2653 2653 2482 2356 2240 2240 2171 2113
nan nan nan nan nan nan nan nan nan nan nan nan nan nan nan nan nan 0 nan nan nan nan nan nan 1 1 13 32 67 67 96 83 93 93 63 74 74 120 19 nan nan nan nan nan nan nan nan nan nan nan nan nan nan nan nan nan nan nan nan 67 67 161 151 99 7 7 104 116 25 25 nan 131 473 473 924 1393 1393 1847 2402 2607 2607 2676 2916 2937 2904 2904 3128 3110 2922 2922 2642 2611 2509 2509 2637 2750 2750 2579 2404 2243 2243 2127 2063
nan nan nan nan nan nan nan nan nan nan nan nan nan nan nan nan nan nan nan nan nan nan nan nan 8 8 20 29 29 29 15 14 10 10 18 39 39 89 18 1 1 0 nan nan nan nan nan nan nan nan nan nan nan nan nan nan nan nan nan 11 11 66 21 45 36 36 131 80 nan nan nan 37 272 272 661 1067 1067 1526 2088 2482 2482 2594 2747 2936 2829 2829 3123 2898 2512 2512 2537 2690 2640 2640 2565 2723 2723 2667 2407 2247 2247 2129 2018
nan nan nan nan nan nan nan nan nan nan nan nan nan nan nan nan nan nan nan nan nan nan nan nan 0 0 3 8 6 6 0 nan nan nan 3 23 23 29 24 8 8 2 nan nan nan nan nan nan nan nan nan nan nan nan nan nan nan nan nan 2 2 6 nan nan 8 8 136 152 5 5 3 27 120 120 350 666 666 1045 1549 2118 2118 2430 2673 2871 2983 2983 3102 2809 2573 2573 2610 2738 2679 2679 2586 2739 2739 2837 2538 2294 2294 2174 2061
nan nan nan nan nan nan nan nan nan nan nan nan nan nan nan nan nan nan nan nan nan nan nan nan nan nan nan 6 24 24 25 20 nan nan nan nan nan 2 nan 43 43 46 12 6 13 13 23 34 115 115 104 124 170 170 106 155 155 237 298 256 256 36 nan nan nan nan nan nan nan nan 65 25 4 4 8 89 89 187 226 331 331 789 1637 2369 2743 2743 3022 2808 2473 2473 2470 2613 2638 2638 2573 2696 2696 2740 2732 2634 2634 2388 2190
nan nan nan nan nan nan nan nan nan nan nan nan nan nan nan nan nan nan nan nan nan nan nan nan nan nan nan 4 27 27 38 15 nan nan nan nan nan nan nan 5 5 4 1 27 83 83 113 126 149 149 123 264 421 421 427 420 420 428 405 352 352 184 nan nan nan nan nan nan nan nan nan 3 0 0 nan 0 0 35 26 48 48 402 1088 1960 2631 2631 2948 2979 2701 2701 2524 2574 2606 2606 2539 2576 2576 2556 2625 2702 2702 2609 2369
nan nan nan nan nan nan nan nan nan nan nan nan nan nan nan nan nan nan nan nan nan nan 1 nan nan nan nan 0 16 16 13 1 nan nan 0 7 7 26 8 nan nan nan nan nan 1 1 73 156 173 173 236 393 407 407 441 469 469 440 405 376 376 276 60 nan nan nan nan nan nan nan nan nan nan nan nan nan nan nan nan 5 5 220 737 1419 2206 2206 2831 3043 3001 3001 2801 2652 2584 2584 2530 2542 2542 2554 2523 2654 2654 2779 2641
nan nan nan nan nan nan nan nan nan nan nan nan nan nan nan nan nan nan nan nan nan 0 3 1 nan nan nan nan 8 8 7 nan 0 0 6 41 41 61 58 nan nan nan nan nan nan nan nan 27 73 73 181 218 203 203 209 269 269 115 379 380 380 358 207 15 nan nan nan nan nan nan nan nan nan nan nan nan nan nan nan nan nan 64 440 926 1477 1477 2127 2742 3119 3119 2924 2701 2690 2690 2473 2419 2419 2431 2497 2607 2607 2759 2604
nan nan nan nan nan nan nan nan nan nan nan nan nan nan nan nan nan nan nan nan nan 0 3 5 2 2 nan nan 1 1 7 1 1 1 2 3 3 22 85 16 16 nan nan nan nan nan nan nan 2 2 37 114 125 125 45 24 24 46 296 328 328 332 402 192 29 29 nan nan nan nan nan nan nan nan nan nan nan nan nan nan nan nan 129 513 900 900 1291 1712 2351 2351 2651 2755 2819 2819 2564 2329 2329 2241 2353 2446 2446 2313 2240
nan nan nan nan nan nan nan nan nan nan nan nan nan nan nan nan nan nan nan 0 0 1 4 9 8 8 4 nan nan nan nan nan 0 0 3 3 3 0 nan nan nan nan nan nan nan nan nan nan nan nan nan 7 35 35 39 37 37 106 190 163 163 219 482 419 253 253 50 nan nan nan nan nan nan nan nan nan nan nan nan nan nan nan 0 139 396 396 635 783 1169 1169 1928 2596 2884 2884 2692 2359 2359 2230 2205 2237 2237 2180 2131
nan nan nan nan nan nan nan nan nan nan nan nan nan nan nan nan nan nan nan 1 1 3 1 3 9 9 7 3 nan nan nan nan nan nan 7 13 13 nan nan nan nan nan nan nan nan nan nan nan nan nan nan nan 0 0 16 179 179 272 225 198 198 118 329 432 380 380 291 142 nan nan nan nan nan nan nan nan nan nan nan nan nan nan nan nan 131 131 271 285 499 499 1143 2120 2661 2661 2817 2487 2487 2268 2196 2198 2198 2243 2105
nan nan nan nan nan nan nan nan nan nan nan nan nan nan nan nan nan nan nan nan nan 2 4 3 4 4 8 21 nan nan nan nan nan nan 2 12 12 0 nan nan nan nan nan nan nan nan nan nan nan nan nan nan nan nan 2 207 207 362 405 381 381 299 276 255 242 242 239 191 101 101 7 nan nan nan nan nan nan nan nan nan nan nan nan nan 3 3 63 111 296 296 741 1471 2225 2225 2777 2823 2823 2537 2325 2254 2254 2205 2203
nan nan nan nan nan nan nan nan nan nan nan nan nan nan nan nan nan nan nan nan nan 3 9 8 0 0 4 24 nan nan nan nan nan nan 0 0 0 nan nan nan nan nan nan nan nan nan 0 1 1 1 nan nan nan nan nan 51 51 277 435 476 476 454 310 264 163 163 110 97 81 81 51 14 10 10 nan nan nan nan nan nan nan nan nan nan nan nan nan nan 141 141 603 1112 1647 1647 2428 2893 2893 2909 2644 2426 2426 2231 2226
nan nan nan nan nan nan nan nan nan nan nan nan nan nan nan nan nan nan nan 2 2 9 20 19 4 4 nan 7 0 0 nan nan nan nan nan nan nan nan nan nan nan nan nan nan nan nan nan 0 9 9 3 16 4 4 0 47 47 197 405 505 505 452 371 266 164 164 102 61 16 16 4 2 32 32 56 16 16 nan nan 0 0 nan nan nan nan nan nan nan nan nan 262 707 1042 1042 1539 2225 2225 2875 2786 2471 2471 2275 2298
nan nan nan nan nan nan nan nan nan nan nan nan nan nan nan nan nan nan nan 1 1 9 21 26 18 18 1 nan nan nan nan nan nan nan nan nan nan nan nan nan nan nan nan nan nan nan nan nan nan nan nan 0 4 4 30 94 94 154 289 410 410 424 284 234 160 160 149 132 30 30 11 4 13 13 10 12 12 34 15 5 5 11 1 nan nan nan nan nan nan nan nan 92 329 329 586 1038 1038 2158 2522 2491 2491 2444 2415
nan nan nan nan nan nan nan nan nan nan nan nan nan nan nan nan nan nan nan nan nan 4 13 27 27 27 17 2 nan nan nan nan nan nan nan nan nan nan nan nan nan nan nan nan nan nan nan nan nan nan nan nan nan nan 1 43 43 71 136 212 212 282 201 151 128 128 168 181 82 82 14 1 1 1 2 nan nan 4 21 8 8 5 4 nan nan nan nan nan nan nan nan nan nan nan 63 413 413 1258 2190 2518 2518 2513 2398
nan nan nan nan nan nan nan nan nan nan nan nan nan nan nan nan nan nan nan nan nan 6 17 27 31 31 23 13 nan nan nan nan nan nan nan nan nan nan nan nan nan nan nan nan nan nan nan nan nan nan nan nan nan nan nan 2 2 17 37 81 81 81 107 111 81 81 136 130 79 79 35 11 1 1 0 0 0 3 0 nan nan nan nan nan nan nan nan nan nan nan nan nan nan nan nan 133 133 661 1585 2322 2322 2508 2387
nan nan nan nan nan nan nan nan nan nan nan nan nan nan nan nan nan nan nan nan nan 5 22 37 34 34 30 19 5 5 nan nan nan nan nan nan nan nan nan nan nan nan nan nan nan nan nan nan nan nan nan nan nan nan nan nan nan 2 31 104 104 147 180 185 123 123 69 77 52 52 43 36 18 18 10 6 6 6 5 0 0 nan nan nan nan nan nan nan nan nan nan nan nan nan nan nan nan 200 798 1622 1622 2089 2270
nan nan nan nan nan nan nan nan nan nan nan nan nan nan nan nan nan nan nan 1 1 7 24 36 35 35 36 23 14 14 1 nan nan nan nan nan nan nan nan nan nan 6 nan nan nan nan nan nan nan nan nan nan nan nan nan nan nan nan 0 3 3 0 10 38 78 78 163 129 88 88 72 50 42 42 26 24 24 13 5 3 3 1 0 nan nan nan nan nan nan nan nan nan nan nan nan nan nan 15 274 824 824 1439 1946
nan nan nan nan nan nan nan nan nan nan nan 0 nan nan nan nan nan 0 1 2 2 8 17 31 35 35 35 29 19 19 5 nan nan nan nan nan nan nan nan nan nan nan nan nan nan nan nan nan nan nan nan nan nan nan nan nan nan nan nan nan nan nan nan nan 2 2 32 79 75 75 65 82 45 45 35 22 22 18 3 2 2 2 nan nan nan nan nan nan nan nan nan nan nan nan nan nan nan nan 99 412 412 886 1382
nan nan nan nan nan nan nan nan nan nan nan 1 nan nan nan nan nan 1 6 4 4 6 12 24 36 36 39 37 35 35 14 nan nan nan nan nan nan nan nan nan nan nan nan nan nan nan nan nan nan nan nan nan nan nan nan nan nan nan nan nan nan nan nan nan nan nan 0 6 8 8 9 13 26 26 28 21 21 10 0 nan nan 1 nan nan nan nan nan nan nan nan nan nan nan nan nan nan nan nan 10 239 239 529 939
nan nan nan nan nan nan nan nan nan nan nan 1 0 0 nan nan nan 2 6 5 5 12 19 26 38 38 42 40 39 39 33 7 nan nan nan nan nan nan nan nan nan nan nan nan nan nan nan nan nan nan nan nan nan nan nan nan nan 0 nan nan nan nan nan nan nan nan nan nan nan nan nan nan nan nan 1 6 6 nan nan nan nan nan 0 nan nan nan nan nan nan nan nan nan nan nan nan nan nan nan nan 96 96 370 710
nan nan nan nan nan nan nan nan nan nan nan 3 0 0 nan nan nan nan nan nan nan 8 20 29 40 40 44 43 44 44 46 25 0 0 nan nan nan nan nan 0 0 nan nan 0 0 0 nan nan nan nan nan nan nan nan nan nan nan nan nan nan nan nan nan nan nan nan nan nan nan nan nan nan nan nan nan nan nan nan nan nan nan nan nan nan nan nan nan nan nan nan nan nan nan nan nan nan nan nan nan 17 17 200 536